| time (UTC) | temp C | wind direction | speed KPH | gust KPH | rain 1hr cm | rain 24hr cm | rain mn cm | humidity % | barometer mb |
| 20260504081541 | 10 | 16 | 20.9 | 32.2 | 0.00 | 0.00 | 0.00 | 50 | 1015.1 |
| 20260504044541 | 14 | 5 | 12.9 | 19.3 | 0.00 | 0.00 | 0.00 | 35 | 1009.7 |
| 20260504043039 | 14 | 19 | 12.9 | 22.5 | 0.00 | 0.00 | 0.00 | 34 | 1009.2 |
| 20260504041539 | 15 | 5 | 11.3 | 17.7 | 0.00 | 0.00 | 0.00 | 33 | 1008.9 |
| 20260504040039 | 15 | 5 | 16.1 | 27.4 | 0.00 | 0.00 | 0.00 | 32 | 1008.5 |
| 20260504034544 | 15 | 5 | 17.7 | 24.1 | 0.00 | 0.00 | 0.00 | 32 | 1008.1 |
| 20260504033050 | 15 | 9 | 14.5 | 22.5 | 0.00 | 0.00 | 0.00 | 31 | 1007.9 |
| 20260504031535 | 15 | 360 | 9.7 | 14.5 | 0.00 | 0.00 | 0.00 | 28 | 1007.4 |
| 20260504030041 | 16 | 5 | 12.9 | 19.3 | 0.00 | 0.00 | 0.00 | 25 | 1007.2 |
| 20260504024544 | 17 | 24 | 4.8 | 8.0 | 0.00 | 0.00 | 0.00 | 22 | 1007.0 |
| 20260504023037 | 17 | 10 | 4.8 | 8.0 | 0.00 | 0.00 | 0.00 | 22 | 1006.9 |
| 20260504021538 | 18 | 9 | 6.4 | 12.9 | 0.00 | 0.00 | 0.00 | 21 | 1006.9 |
| 20260504020037 | 20 | 360 | 9.7 | 20.9 | 0.00 | 0.00 | 0.00 | 19 | 1007.2 |
| 20260504014539 | 21 | 352 | 14.5 | 20.9 | 0.00 | 0.00 | 0.00 | 18 | 1007.1 |
| 20260504013038 | 22 | 18 | 16.1 | 25.7 | 0.00 | 0.00 | 0.00 | 17 | 1007.2 |
| 20260504011538 | 22 | 15 | 17.7 | 27.4 | 0.00 | 0.00 | 0.00 | 17 | 1007.2 |
| 20260504010048 | 23 | 5 | 12.9 | 22.5 | 0.00 | 0.00 | 0.00 | 17 | 1007.3 |
| 20260504004537 | 23 | 340 | 16.1 | 25.7 | 0.00 | 0.00 | 0.00 | 16 | 1007.2 |
| 20260504003037 | 23 | 17 | 12.9 | 25.7 | 0.00 | 0.00 | 0.00 | 15 | 1007.4 |
| 20260504001550 | 24 | 323 | 12.9 | 20.9 | 0.00 | 0.00 | 0.00 | 15 | 1007.6 |
| 20260504000040 | 24 | 294 | 12.9 | 22.5 | 0.00 | 0.00 | 0.00 | 15 | 1007.7 |
| 20260503234539 | 24 | 317 | 9.7 | 20.9 | 0.00 | 0.00 | 0.00 | 15 | 1007.7 |
| 20260503233037 | 24 | 269 | 12.9 | 24.1 | 0.00 | 0.00 | 0.00 | 15 | 1007.8 |
| 20260503231537 | 25 | 294 | 11.3 | 22.5 | 0.00 | 0.00 | 0.00 | 14 | 1008.0 |
| 20260503230037 | 24 | 279 | 8.0 | 27.4 | 0.00 | 0.00 | 0.00 | 16 | 1008.0 |
| 20260503224537 | 24 | 265 | 8.0 | 25.7 | 0.00 | 0.00 | 0.00 | 15 | 1008.2 |
| 20260503223039 | 24 | 300 | 11.3 | 19.3 | 0.00 | 0.00 | 0.00 | 16 | 1008.3 |
| 20260503221543 | 23 | 300 | 14.5 | 30.6 | 0.00 | 0.00 | 0.00 | 15 | 1008.7 |
| 20260503220049 | 24 | 307 | 9.7 | 20.9 | 0.00 | 0.00 | 0.00 | 15 | 1008.8 |
| 20260503214537 | 24 | 309 | 11.3 | 25.7 | 0.00 | 0.00 | 0.00 | 14 | 1009.0 |
| 20260503213040 | 23 | 306 | 11.3 | 22.5 | 0.00 | 0.00 | 0.00 | 16 | 1009.2 |
| 20260503211550 | 23 | 246 | 9.7 | 24.1 | 0.00 | 0.00 | 0.00 | 16 | 1009.5 |
| 20260503210041 | 23 | 295 | 11.3 | 27.4 | 0.00 | 0.00 | 0.00 | 15 | 1009.6 |
| 20260503204540 | 23 | 315 | 14.5 | 25.7 | 0.00 | 0.00 | 0.00 | 14 | 1010.1 |
| 20260503203038 | 23 | 348 | 11.3 | 25.7 | 0.00 | 0.00 | 0.00 | 17 | 1010.1 |
| 20260503201539 | 23 | 302 | 9.7 | 24.1 | 0.00 | 0.00 | 0.00 | 16 | 1010.3 |
| 20260503200037 | 22 | 317 | 14.5 | 25.7 | 0.00 | 0.00 | 0.00 | 15 | 1010.3 |
| 20260503194537 | 23 | 241 | 16.1 | 25.7 | 0.00 | 0.00 | 0.00 | 16 | 1010.5 |
| 20260503193042 | 22 | 303 | 12.9 | 27.4 | 0.00 | 0.00 | 0.00 | 17 | 1010.7 |
| 20260503191540 | 22 | 263 | 17.7 | 29.0 | 0.00 | 0.00 | 0.00 | 18 | 1010.9 |
| 20260503190039 | 23 | 219 | 12.9 | 25.7 | 0.00 | 0.00 | 0.00 | 19 | 1011.2 |
| 20260503184537 | 23 | 255 | 16.1 | 30.6 | 0.00 | 0.00 | 0.00 | 18 | 1011.3 |
| 20260503183041 | 22 | 257 | 9.7 | 22.5 | 0.00 | 0.00 | 0.00 | 20 | 1011.4 |
| 20260503181612 | 22 | 244 | 14.5 | 29.0 | 0.00 | 0.00 | 0.00 | 21 | 1011.9 |
| 20260503180041 | 21 | 240 | 12.9 | 24.1 | 0.00 | 0.00 | 0.00 | 22 | 1012.1 |
| 20260503174537 | 21 | 236 | 9.7 | 20.9 | 0.00 | 0.00 | 0.00 | 25 | 1012.3 |
| 20260503173051 | 20 | 317 | 11.3 | 19.3 | 0.00 | 0.00 | 0.00 | 25 | 1012.5 |
| 20260503171538 | 20 | 274 | 6.4 | 17.7 | 0.00 | 0.00 | 0.00 | 28 | 1012.5 |